Weather History for Oklahoma City Wiley Post, OK

Change the Weather History Date:

Thursday, March 7, 2013

  Actual Average Record
Temperature  
Mean Temperature 56 °F -  
Max Temperature 71 °F 59 °F 82 °F (1974)
Min Temperature 41 °F 36 °F 21 °F (1955)
Degree Days  
Heating Degree Days 9    
Growing Degree Days 6 (Base 50)    
Moisture  
Dew Point 22 °F    
Average Humidity 28    
Maximum Humidity 40    
Minimum Humidity 17    
Precipitation  
Precipitation 0.00 in - - ()
Sea Level Pressure  
Sea Level Pressure 30.08 in    
Wind  
Wind Speed 16 mph (SSE)    
Max Wind Speed 25 mph    
Max Gust Speed 36 mph    
Visibility 10 miles    
Events      
Averages and records for this station are not official NWS values.
T = Trace of Precipitation, MM = Missing Value Source: NWS Daily Summary

Daily Weather History Graph

Daily Weather History Graph

Search for Another Location

Airport:

Trip Planner

Search our weather history database for the weather conditions in past years. The results will help you decide how hot, cold, wet, or windy it might be!

Date:

Astronomy

Mar. 07, 2013 Rise Set
Actual Time 6:52 AM CST 6:31 PM CST
Civil Twilight 6:26 AM CST 6:56 PM CST
Nautical Twilight 5:57 AM CST 7:26 PM CST
Astronomical Twilight 5:27 AM CST 7:56 PM CST
Moon 3:45 AM CST (3/7) 2:27 PM CST (3/7)
Length of Visible Light 12h 30m
Length of Day
11h 39m
Waning Crescent, 20% of the Moon is Illuminated
Mar 7
Waning Crescent
Mar 11
New
Mar 19
First Quarter
Mar 27
Full
Apr 2
Last Quarter

Hourly Weather History & Observations

Time (CST) Temp. Windchill Dew Point Humidity Pressure Visibility Wind Dir Wind Speed Gust Speed Precip Events Conditions
12:53 AM 44.1 °F 39.5 °F 18.0 °F 35% 30.17 in 10.0 mi SE 8.1 mph - N/A   Clear
1:53 AM 43.0 °F 37.2 °F 18.0 °F 37% 30.17 in 10.0 mi SE 10.4 mph - N/A   Clear
2:53 AM 42.1 °F 35.7 °F 17.1 °F 37% 30.15 in 10.0 mi SE 11.5 mph - N/A   Clear
3:53 AM 42.1 °F 35.7 °F 17.1 °F 37% 30.14 in 10.0 mi SE 11.5 mph - N/A   Clear
4:53 AM 42.1 °F 34.5 °F 17.1 °F 37% 30.12 in 10.0 mi SE 15.0 mph - N/A   Clear
5:53 AM 41.0 °F 32.2 °F 17.1 °F 38% 30.12 in 10.0 mi SE 18.4 mph - N/A   Clear
6:53 AM 41.0 °F 32.8 °F 18.0 °F 40% 30.13 in 10.0 mi SSE 16.1 mph - N/A   Clear
7:53 AM 44.1 °F 37.1 °F 19.0 °F 37% 30.13 in 10.0 mi SSE 15.0 mph - N/A   Clear
8:53 AM 48.9 °F - 19.9 °F 32% 30.13 in 10.0 mi South 23.0 mph - N/A   Clear
9:53 AM 55.0 °F - 21.0 °F 27% 30.12 in 10.0 mi South 24.2 mph 33.4 mph N/A   Clear
10:53 AM 61.0 °F - 21.0 °F 21% 30.10 in 10.0 mi South 25.3 mph 35.7 mph N/A   Clear
11:53 AM 64.9 °F - 21.9 °F 19% 30.08 in 10.0 mi South 24.2 mph 34.5 mph N/A   Clear
12:53 PM 66.9 °F - 23.0 °F 19% 30.07 in 10.0 mi SSW 24.2 mph 31.1 mph N/A   Clear
1:53 PM 70.0 °F - 24.1 °F 18% 30.03 in 10.0 mi South 25.3 mph 32.2 mph N/A   Clear
2:53 PM 71.1 °F - 25.0 °F 18% 30.02 in 10.0 mi South 21.9 mph 28.8 mph N/A   Clear
3:53 PM 71.1 °F - 24.1 °F 17% 30.00 in 10.0 mi South 18.4 mph 31.1 mph N/A   Clear
4:53 PM 70.0 °F - 25.0 °F 18% 30.00 in 10.0 mi South 20.7 mph 28.8 mph N/A   Clear
5:53 PM 66.9 °F - 25.0 °F 21% 30.01 in 10.0 mi SSE 19.6 mph 27.6 mph N/A   Clear
6:53 PM 63.0 °F - 25.0 °F 24% 30.02 in 10.0 mi SSE 16.1 mph 25.3 mph N/A   Clear
7:53 PM 60.1 °F - 25.0 °F 26% 30.03 in 10.0 mi South 20.7 mph - N/A   Clear
8:53 PM 59.0 °F - 26.1 °F 28% 30.03 in 10.0 mi South 23.0 mph 28.8 mph N/A   Clear
9:53 PM 57.9 °F - 27.0 °F 31% 30.03 in 10.0 mi South 23.0 mph 31.1 mph N/A   Clear
10:53 PM 57.0 °F - 26.1 °F 30% 30.03 in 10.0 mi South 18.4 mph 31.1 mph N/A   Clear
11:53 PM 55.9 °F - 27.0 °F 33% 30.03 in 10.0 mi South 23.0 mph 29.9 mph N/A   Clear